[[{"header":{"parameterUnit":"m.s-1","parameterCategory":1,"la1":30.2992,"la2":30.254,"lo1":-89.0895,"lo2":-89.0443,"dy":0.0025,"dx":0.0025,"nx":19,"ny":19,"refTime":"2026-03-29T21:00:00:Z","depth":0,"parameterNumber":2,"parameterNumberName":"U-component_of_WINDS"},"data":[0,0,0,-8.7658,-8.7661,-8.7745,-8.7745,-8.7892,-8.7893,0,0,0,0,0,0,0,0,0,0,0,-8.7658,-8.766,-8.7658,-8.7661,-8.7745,-8.7745,-8.7891,-8.7893,0,0,0,0,0,0,0,0,0,0,0,-8.7657,-8.766,-8.7662,-8.7662,-8.7745,-8.7745,-8.7891,-8.7813,0,0,0,0,0,0,0,0,0,0,-8.7724,-8.7749,-8.7659,-8.7662,-8.7662,-8.7745,-8.7745,-8.7809,-8.7818,-8.787,0,-8.7925,0,-8.7912,-8.7906,-8.7906,0,0,0,-8.7642,-8.7741,-8.7742,-8.7662,-8.7663,-8.7745,-8.7702,-8.7813,-8.7824,-8.7883,-8.7927,-8.7931,-8.7915,-8.7907,-8.7908,-8.8279,-8.8282,0,0,-8.7637,-8.7686,-8.7735,-8.775,-8.7742,-8.7699,-8.7705,-8.7819,-8.7869,-8.7927,-8.7934,-8.7917,-8.7908,-8.7909,-8.8276,-8.828,0,0,0,-8.7637,-8.7684,-8.768,-8.7745,-8.7758,-8.7702,-8.7708,-8.7864,-8.7859,-8.7935,-8.7919,-8.7909,-8.7911,-8.8274,-8.8278,-8.8454,0,0,0,-8.7633,-8.7683,-8.768,-8.771,-8.7757,-8.7812,-8.7752,-8.7851,-8.7863,-8.7918,-8.7909,-8.7913,-8.8271,-8.8276,-8.8443,-8.8528,0,0,0,-8.7644,-8.7684,-8.7705,-8.7713,-8.7751,-8.7809,-8.781,-8.7852,-8.7854,-8.7906,-8.7914,-8.8269,-8.8275,-8.8433,-8.8512,-8.8639,0,0,0,-8.7669,-8.786,-8.7709,-8.7916,-8.7751,-8.792,-8.7809,-8.7932,-8.7999,-8.791,-8.8271,-8.8277,-8.843,-8.8501,-8.8629,-8.8753,-8.881,0,0,-8.7936,-8.7894,-8.8011,-8.7879,-8.8088,-8.7903,-8.8137,-8.815,-8.811,-8.8225,-8.8233,-8.8447,-8.851,-8.8637,-8.912,-8.9166,0,0,0,-8.8112,-8.8197,-8.8242,-8.831,-8.8327,-8.8349,-8.8322,-8.8328,-8.8423,-8.818,-8.8528,-8.8564,-8.8636,-8.8693,-8.8732,-8.879,-8.8307,-8.8306,-8.8305,-8.8556,-8.8498,-8.8689,-8.8642,-8.8709,-8.8682,-8.873,-8.8732,-8.8651,-8.8735,-8.8767,-8.9068,-8.9137,-8.9165,-8.9227,-8.8831,-8.8832,-8.8832,-8.8833,-8.8939,-8.9049,-8.8943,-8.9089,-8.9027,-8.9148,-8.9132,-8.9071,-8.9174,-8.9038,-8.9099,-8.8952,-8.9218,-8.9268,-8.8846,-8.8843,-8.8842,-8.884,-8.884,-8.922,-8.9262,-8.927,-8.9363,-8.9442,-8.9387,-8.9493,-8.9432,-8.9375,-8.9435,-8.9462,-8.9459,-8.9445,-8.9454,-8.9455,-8.9456,-8.9457,-8.9457,-8.9458,-8.9506,-8.9509,-8.9606,-8.9645,-8.9682,-8.9722,-8.9701,-8.9735,-8.9756,-8.9703,-8.9703,-8.9613,-8.9257,-8.9166,-8.9474,-8.9471,-8.9469,-8.9467,-8.9466,-8.9909,-8.981,-8.996,-8.9998,-9.0039,-9.0121,-9.0045,-9.012,-9.0139,-9.0194,-9.0094,-8.9841,-8.9791,-8.976,-8.9684,-9.0107,-9.0107,-9.0107,-9.0107,-9.0143,-9.0115,-9.0255,-9.032,-9.0376,-9.0324,-9.0494,-9.0482,-9.0452,-9.046,-9.0392,-9.0288,-9.0259,-9.0226,-9.0184,-9.0113,-9.0635,-9.0636,-9.0636,-9.0386,-9.0361,-9.0518,-9.0491,-9.0521,-9.0547,-9.0706,-9.0783,-9.0728,-9.0656,-9.0465,-9.0443,-9.0275,-9.0224,-9.0141,-9.0078,-8.9945,0,0]},{"header":{"parameterUnit":"m.s-1","parameterCategory":1,"la1":30.2992,"la2":30.254,"lo1":-89.0895,"lo2":-89.0443,"dy":0.0025,"dx":0.0025,"nx":19,"ny":19,"refTime":"2026-03-29T21:00:00:Z","depth":0,"parameterNumber":3,"parameterNumberName":"V-component_of_WINDS"},"data":[0,0,0,1.6263,1.626,1.6158,1.6157,1.6021,1.602,0,0,0,0,0,0,0,0,0,0,0,1.6292,1.6291,1.6263,1.626,1.6158,1.6157,1.6021,1.602,0,0,0,0,0,0,0,0,0,0,0,1.6292,1.6291,1.629,1.626,1.6158,1.6157,1.6022,1.61,0,0,0,0,0,0,0,0,0,0,1.62,1.6227,1.6292,1.629,1.6259,1.6158,1.6157,1.6104,1.6095,1.6066,0,1.6042,0,1.6029,1.6011,1.601,0,0,0,1.626,1.6234,1.6208,1.629,1.6258,1.6158,1.6204,1.6099,1.6089,1.6055,1.604,1.6035,1.6027,1.601,1.6009,1.5851,1.585,0,0,1.6265,1.6272,1.6215,1.6202,1.622,1.6207,1.6201,1.6093,1.6077,1.604,1.6032,1.6025,1.6009,1.6008,1.5851,1.5851,0,0,0,1.6282,1.6276,1.6252,1.6207,1.619,1.6204,1.6197,1.6082,1.6074,1.6031,1.6023,1.6008,1.6007,1.5852,1.5851,1.5823,0,0,0,1.6285,1.6286,1.6255,1.6258,1.6192,1.6135,1.6187,1.6081,1.6069,1.6024,1.6008,1.6005,1.5853,1.5852,1.5826,1.5808,0,0,0,1.6299,1.6287,1.6273,1.6258,1.6215,1.6136,1.6122,1.6078,1.6064,1.601,1.6005,1.5853,1.5852,1.5828,1.5811,1.5769,0,0,0,1.6314,1.6246,1.6272,1.6193,1.6216,1.6121,1.6123,1.6051,1.6001,1.6007,1.5853,1.5851,1.5829,1.5814,1.5772,1.5735,1.572,0,0,1.6232,1.6236,1.619,1.621,1.6113,1.6136,1.6034,1.598,1.5967,1.589,1.5886,1.5825,1.5812,1.577,1.5637,1.5626,0,0,0,1.6166,1.6132,1.6105,1.606,1.6021,1.5985,1.5948,1.5928,1.5864,1.593,1.5798,1.579,1.5765,1.5747,1.5737,1.5715,1.5843,1.5844,1.5844,1.6056,1.6048,1.597,1.595,1.5906,1.5871,1.5834,1.5802,1.5802,1.5772,1.5748,1.5669,1.5649,1.5641,1.5619,1.5728,1.5728,1.5728,1.5728,1.5935,1.5886,1.5894,1.5821,1.5812,1.575,1.5714,1.5717,1.5657,1.5685,1.5663,1.5694,1.5629,1.5609,1.5726,1.5726,1.5726,1.5727,1.5727,1.5861,1.5837,1.5818,1.5755,1.5707,1.5688,1.5632,1.5625,1.5617,1.5595,1.557,1.5571,1.557,1.5584,1.5584,1.5584,1.5584,1.5583,1.5583,1.5793,1.5772,1.5727,1.5683,1.5655,1.5618,1.5584,1.5555,1.5522,1.5521,1.552,1.5524,1.5625,1.5651,1.5579,1.558,1.558,1.5581,1.5581,1.5672,1.5699,1.5629,1.5602,1.5551,1.5505,1.5498,1.5442,1.5417,1.539,1.54,1.5476,1.5479,1.5486,1.5507,1.5403,1.5403,1.5403,1.5403,1.561,1.5612,1.5541,1.5499,1.5455,1.5444,1.5365,1.5339,1.5316,1.53,1.5315,1.5342,1.535,1.5348,1.5359,1.5378,1.5243,1.5242,1.5242,1.5535,1.5534,1.5468,1.545,1.541,1.5376,1.5302,1.5251,1.523,1.5236,1.5288,1.5294,1.5339,1.5354,1.5357,1.5374,1.5409,0,0]}]]